Location: Ebersbach
(49.5969°N, 11.8259°E)
Time: 14:19:46
(UTC+00:00)

Daily predictions for brighter satellites

Satellite Brightness Start Highest point End
(mag) Time Altitude Azimuth Time Altitude Azimuth Time Altitude Azimuth
Cosmos 1674 2.9 18:05:57 10° NNW 18:09:44 77° W 18:13:27 10° S
STARLINK-1130 (DARKSAT) 3.9 18:05:44 10° WNW 18:09:52 61° NNE 18:13:58 10° E
Cosmos 1110 Rocket 4.1 18:04:33 10° NNW 18:09:52 89° ENE 18:15:05 10° SSE
Meteor 1-22 Rocket 4.3 18:04:56 10° SSE 18:10:01 49° E 18:15:06 10° NNE
STARLINK-1216 4.1 18:06:30 10° SSW 18:10:18 40° SE 18:14:06 10° ENE
STARLINK-1100 3.8 18:06:16 10° WNW 18:10:19 68° SSW 18:14:22 10° SE
ARGOS Delta rocket 4.2 18:05:41 10° SSE 18:10:44 60° ENE 18:16:02 10° N
Aureole 2 Rocket 4.5 18:09:04 10° NNE 18:10:59 14° NE 18:12:55 10° E
ATLAS CENTAUR R/B 4.0 18:08:12 10° WNW 18:11:15 18° NNW 18:14:10 10° NNE
IRS-1A Rocket 4.4 18:06:03 10° SSE 18:11:36 62° ENE 18:17:20 10° N
Cosmos 1553 Rocket 4.0 18:06:46 10° S 18:12:50 90° W 18:18:59 10° N
NOSS 2-1 (E) 3.4 18:09:34 10° SW 18:12:57 70° NW 18:16:50 10° NE
Cosmos 2219 Rocket 3.6 18:07:41 10° WSW 18:13:04 43° NW 18:18:27 10° NNE
STARLINK-1084 3.9 18:10:43 10° WNW 18:14:51 63° NNE 18:18:57 10° E
STARLINK-1237 4.0 18:11:12 10° SW 18:15:03 42° SE 18:18:54 10° ENE
STARLINK-1083 3.9 18:11:01 10° WNW 18:15:03 64° SSW 18:19:05 10° SE
KORONAS-FOTON 4.2 18:12:54 10° NNW 18:16:44 70° W 18:20:31 10° S
Cosmos 1943 Rocket 2.9 18:12:29 10° NNW 18:17:33 35° NE 18:22:37 10° ESE
STARLINK-1209 2.6 18:14:50 10° WSW 18:17:46 77° SSE 18:20:42 10° ENE
Cosmos 1939 Rocket 4.5 18:14:24 10° SSW 18:18:07 39° W 18:21:50 10° NNW
ATLAS 2AS CENTAUR R/B 4.1 18:12:25 10° NW 18:19:25 33° NNE 18:26:00 10° E
STARLINK-1125 4.0 18:15:36 10° WNW 18:19:37 60° SSW 18:23:38 10° SE
STARLINK-1202 3.9 18:15:53 10° SW 18:19:46 45° SE 18:23:39 10° ENE
STARLINK-1098 3.9 18:15:43 10° WNW 18:19:50 65° NNE 18:23:58 10° E
STARLINK-1228 2.6 18:17:03 10° WSW 18:19:55 79° SSE 18:22:48 10° ENE
SL-14 R/B 3.5 18:16:50 10° N 18:20:50 53° ENE 18:24:46 10° SSE
Cosmos 1980 4.0 18:18:34 10° SSW 18:24:15 77° WNW 18:29:59 10° NNE
STARLINK-1109 4.1 18:20:21 10° WNW 18:24:21 57° SSW 18:28:21 10° SE
SL-8 R/B 3.7 18:20:00 10° W 18:24:47 79° S 18:29:34 10° E
STARLINK-1123 3.8 18:20:42 10° WNW 18:24:50 67° NNE 18:28:51 11° E
ERBS 3.2 18:23:18 10° WSW 18:26:35 48° NNW 18:29:53 10° NE
STARLINK-1246 3.8 18:22:50 10° SW 18:26:49 51° SSE 18:30:48 10° ENE
Cosmos 2315 Rocket 4.3 18:23:04 10° SSE 18:29:04 48° E 18:35:09 10° NNE
STARLINK-1091 4.1 18:25:10 10° WNW 18:29:09 53° SSW 18:33:08 10° SE
Cosmos 1766 3.5 18:25:22 10° SSW 18:29:22 79° W 18:33:22 10° N
STARLINK-1097 3.8 18:25:40 10° WNW 18:29:48 69° NNE 18:33:37 12° E
ADEOS Rocket 3.7 18:23:49 10° N 18:30:41 68° WNW 18:36:48 10° SSW
USA 234 3.8 18:25:03 10° ENE 18:31:00 36° SE 18:36:54 10° SSW
STARLINK-67 2.7 18:29:31 10° WSW 18:32:05 66° NNW 18:34:40 10° ENE
STARLINK-1201 2.9 18:29:18 10° WSW 18:32:32 75° SSE 18:35:50 10° ENE
Cosmos 1626 2.0 18:29:39 10° N 18:33:22 68° E 18:37:03 10° SSE
STARLINK-1224 3.7 18:30:02 10° SW 18:34:00 56° SSE 18:37:59 10° ENE
Meteor 2-8 Rocket 4.4 18:28:00 10° S 18:34:08 76° E 18:40:16 10° NNE
STARLINK-1099 3.7 18:30:40 10° WNW 18:34:48 72° NNE 18:38:25 13° ESE
STARLINK-1203 3.6 18:31:42 10° SW 18:35:37 60° SSE 18:39:33 10° ENE
H-2A R/B 2.1 18:30:23 10° SSE 18:35:41 82° ENE 18:40:53 10° NNW
SL-16 R/B 2.3 18:32:42 10° S 18:38:11 55° ESE 18:43:42 10° NE
STARLINK-1225 3.6 18:34:37 10° SW 18:38:37 59° SSE 18:42:39 10° ENE
STARLINK-1072 4.4 18:35:31 10° WNW 18:39:23 45° SW 18:43:08 11° SE
STARLINK-1104 3.7 18:35:39 10° WNW 18:39:48 75° NNE 18:43:12 15° ESE
SL-08 RB Rocket 3.8 18:35:54 10° SSE 18:40:18 55° ENE 18:44:48 10° N
TSX-5 4.3 18:34:47 10° NNW 18:40:27 75° ENE 18:44:38 11° SE
Cosmos 2333 Rocket 4.3 18:35:51 10° WSW 18:40:48 30° NW 18:45:46 10° NNE
Resurs 01 Rocket 2.7 18:38:54 13° ESE 18:42:07 28° ENE 18:45:53 10° N
STARLINK-1230 3.6 18:39:20 10° SW 18:43:22 63° SSE 18:47:24 10° ENE
STARLINK-1096 4.5 18:39:53 10° WNW 18:43:43 42° SW 18:47:19 11° SE
STARLINK-1144 3.6 18:40:38 10° WNW 18:44:47 78° NNE 18:47:59 17° ESE
STARLINK-1233 2.8 18:42:50 10° WSW 18:45:58 88° NNW 18:48:52 12° ENE
FREGAT/IRIS 2.5 18:43:38 10° S 18:46:21 73° WSW 18:49:05 10° NNW
STARLINK-1212 2.8 18:43:17 10° WSW 18:46:25 88° NNW 18:49:17 12° ENE
STARLINK-1105 2.8 18:43:43 10° WSW 18:46:52 87° NNW 18:49:44 12° ENE
Cosmos 1302 Rocket 4.0 18:41:57 10° NNW 18:47:15 89° ENE 18:52:33 10° SSE
STARLINK-1206 2.8 18:44:14 10° WSW 18:47:21 87° NNW 18:50:09 12° ENE
STARLINK-1247 2.8 18:44:39 10° WSW 18:47:47 86° NNW 18:50:34 13° ENE
STARLINK-1243 3.5 18:44:08 10° SW 18:48:11 67° SSE 18:52:10 10° ENE
STARLINK-1227 2.9 18:45:05 10° WSW 18:48:13 86° NNW 18:51:02 13° ENE
STARLINK-1218 2.8 18:45:34 10° WSW 18:48:41 85° NNW 18:51:27 13° ENE
Abrixas rocket 3.8 18:47:07 10° S 18:49:01 16° SSE 18:49:06 16° SE
STARLINK-1226 2.8 18:46:01 10° WSW 18:49:09 85° NNW 18:51:53 13° ENE
STARLINK-1254 2.9 18:46:26 10° WSW 18:49:35 84° NNW 18:52:20 13° ENE
STARLINK-1103 3.6 18:45:36 10° WNW 18:49:46 81° NNE 18:52:45 18° ESE
SeaSat 1 4.1 18:45:27 10° NNE 18:49:58 36° NW 18:54:27 10° WSW
STARLINK-1215 2.8 18:46:55 10° WSW 18:50:03 84° NNW 18:52:44 13° ENE
Cosmos 1709 Rocket 4.0 18:43:56 10° N 18:50:12 90° ENE 18:56:21 10° S
STARLINK-1231 2.9 18:47:22 10° WSW 18:50:29 83° NNW 18:53:10 13° ENE
Cosmos 1953 3.2 18:47:42 10° SSE 18:51:07 28° E 18:54:32 10° NNE
STARLINK-1232 2.9 18:48:16 10° WSW 18:51:24 82° NNW 18:54:03 14° ENE
STARLINK-1217 2.9 18:48:43 10° WSW 18:51:51 82° NNW 18:54:28 14° ENE
STARLINK-1208 2.9 18:49:08 10° WSW 18:52:17 82° NNW 18:54:56 14° ENE
STARLINK-1229 2.9 18:49:37 10° WSW 18:52:44 81° NNW 18:55:20 14° ENE
STARLINK-1236 3.5 18:48:54 10° SW 18:52:57 71° SSE 18:56:46 12° ENE
STARLINK-1271 2.9 18:50:04 10° WSW 18:53:11 81° NNW 18:55:47 14° ENE
STARLINK-1270 2.9 18:50:32 10° WSW 18:53:39 80° NNW 18:56:12 14° ENE
STARLINK-1154 2.9 18:50:59 10° WSW 18:54:06 80° NNW 18:56:39 15° ENE
STARLINK-1101 3.6 18:50:35 10° WNW 18:54:45 85° NNE 18:57:32 20° ESE
MONITOR-E 4.4 18:52:17 10° S 18:54:53 57° W 18:57:31 10° NNW
STARLINK-1197 2.9 18:51:53 10° WSW 18:55:00 79° NNW 18:57:31 15° ENE
Cosmos 1269 Rocket 4.0 18:49:45 10° SSW 18:55:03 89° ESE 19:00:24 10° NNE
STARLINK-1189 2.9 18:52:20 10° WSW 18:55:28 79° NNW 18:57:57 15° ENE
STARLINK-1187 3.0 18:53:12 10° WSW 18:56:19 73° NNW 18:58:50 15° ENE
STARLINK-1188 2.9 18:53:15 10° WSW 18:56:22 78° NNW 18:58:49 15° ENE
STARLINK-1198 2.9 18:53:16 10° WSW 18:56:22 78° NNW 18:58:49 15° ENE
SL-24 R/B 4.4 18:52:15 10° NNE 18:56:42 43° E 19:00:36 10° S
STARLINK-1235 3.1 18:53:54 10° WSW 18:57:02 67° NNW 18:59:33 15° ENE
CZ-4C R/B 4.3 18:52:39 10° WNW 18:57:29 27° NNW 19:03:06 10° NE
STARLINK-1199 3.0 18:55:11 10° WSW 18:58:19 76° NNW 19:00:44 16° ENE
STARLINK-1191 3.0 18:55:37 10° WSW 18:58:46 76° NNW 19:01:10 16° ENE
STARLINK-1210 3.0 18:56:05 10° WSW 18:59:13 75° NNW 19:01:36 16° ENE
STARLINK-1221 3.0 18:56:32 10° WSW 18:59:40 75° NNW 19:02:02 16° ENE
STARLINK-1102 3.6 18:55:33 10° WNW 18:59:43 88° NNE 19:02:19 22° ESE
STARLINK-1219 3.0 18:56:59 10° WSW 19:00:08 75° NNW 19:02:29 17° ENE
STARLINK-1222 3.0 18:57:26 10° WSW 19:00:35 74° NNW 19:02:54 17° ENE
ISS -3.8 18:57:32 10° WNW 19:00:55 81° NNE 19:02:41 25° E
STARLINK-1211 3.0 18:57:54 10° WSW 19:01:02 74° NNW 19:03:20 17° ENE
STARLINK-1214 3.0 18:58:20 10° WSW 19:01:29 73° NNW 19:03:45 17° ENE
Cosmos 2297 4.3 18:56:07 10° NW 19:01:41 59° WSW 19:07:16 10° S
STARLINK-1245 3.0 18:58:49 10° WSW 19:01:56 73° NNW 19:04:10 17° ENE
STARLINK-1238 3.0 18:59:12 10° WSW 19:02:21 73° NNW 19:04:37 17° ENE
Cosmos 1455 Rocket 3.9 18:58:27 10° SSW 19:02:42 54° WNW 19:07:01 10° N
Cosmos 2251 Rocket 4.1 18:57:58 10° SSE 19:02:44 34° ESE 19:07:32 10° NE
STARLINK-1269 3.5 18:58:42 10° WSW 19:02:46 79° SSE 19:06:12 14° ENE
Cosmos 2074 Rocket 4.3 18:56:58 10° N 19:03:03 50° ENE 19:08:16 14° SSE
STARLINK-1205 3.0 19:00:08 10° WSW 19:03:15 72° NNW 19:05:26 18° ENE
BREEZE-M DEB (TANK) 3.7 18:55:38 10° W 19:03:25 88° SSW 19:05:20 24° E
STARLINK-1204 3.0 19:00:37 10° WSW 19:03:44 71° NNW 19:05:54 18° ENE
Cosmos 2084 Rocket 3.6 18:59:43 10° NW 19:04:11 70° NE 19:06:58 23° SE
STARLINK-1111 3.6 19:00:33 10° WNW 19:04:42 88° SSW 19:07:06 24° ESE
Cosmos 1703 4.4 19:04:16 10° NNE 19:07:34 25° ENE 19:08:26 23° E
STARLINK-1200 3.5 19:03:30 10° WSW 19:07:35 84° SSE 19:10:50 16° ENE
Cosmos 2237 Rocket 3.5 19:02:33 10° WSW 19:07:54 43° NW 19:13:17 10° NNE
CZ-2C R/B 3.0 19:03:27 10° NNE 19:08:20 39° E 19:13:10 10° SSE
Cosmos 1626 Rocket 3.8 19:04:41 10° NNW 19:09:05 73° W 19:13:26 10° S
STARLINK-1073 3.6 19:05:32 10° WNW 19:09:41 84° SSW 19:11:53 27° ESE
STARLINK-1192 3.5 19:08:15 10° WSW 19:12:21 87° SSE 19:15:24 17° ENE
STARLINK-1121 3.6 19:10:30 10° WNW 19:14:39 80° SSW 19:16:39 29° ESE
Cosmos 292 Rocket 3.7 19:10:46 10° NNW 19:15:33 70° ENE 19:18:32 23° SE
ARGOS 3.8 19:10:52 10° S 19:16:10 57° W 19:21:30 10° NNW
Cosmos 1602 Rocket 3.7 19:12:37 10° NNW 19:17:07 78° W 19:21:32 10° S
STARLINK-1244 3.5 19:13:10 10° WSW 19:17:15 89° NNW 19:20:08 19° ENE
Cosmos 1656 Rocket 4.4 19:12:37 10° NNW 19:17:56 38° NE 19:20:40 24° E
IRIDIUM 104 4.2 19:13:12 10° N 19:18:27 76° E 19:23:40 10° S
STARLINK-1106 3.6 19:15:28 10° WNW 19:19:36 76° SSW 19:21:25 32° SE
STARLINK-1138 3.5 19:17:45 10° WSW 19:21:52 85° NNW 19:24:34 21° ENE
MOS 1 Rocket 3.7 19:17:37 10° NNE 19:22:45 55° E 19:28:02 10° S
STARLINK-1234 3.5 19:19:56 10° W 19:22:50 50° NNW 19:24:04 28° NE
USA 186 4.0 19:20:32 10° SSW 19:23:33 28° W 19:26:31 10° NW
STARLINK-1112 3.6 19:20:28 10° WNW 19:24:37 71° SSW 19:26:14 35° SE
STARLINK-1143 3.6 19:22:39 10° WSW 19:26:46 82° NNW 19:29:16 23° ENE
MetOp-A 4.2 19:21:26 10° SSE 19:26:47 79° WSW 19:32:11 10° NNW
IRIDIUM 114 4.3 19:22:22 10° N 19:27:38 89° E 19:32:51 10° S
CZ-2C R/B 4.2 19:23:57 10° SSW 19:28:41 40° W 19:33:15 10° NNW
COSMOS 2455 4.3 19:23:45 10° NNW 19:28:46 26° NNE 19:32:01 17° ENE
STARLINK-1128 3.7 19:25:27 10° WNW 19:29:34 67° SSW 19:31:01 38° SE
Cosmos 1437 2.7 19:28:29 10° N 19:31:24 54° ENE 19:31:24 54° ENE
Cosmos 1470 3.6 19:28:31 10° SSW 19:32:17 51° WNW 19:36:07 10° N
Cosmos 1726 Rocket 4.2 19:33:41 34° E 19:33:47 34° E 19:37:48 10° NNE
STARLINK-1113 3.8 19:30:26 10° WNW 19:34:32 63° SSW 19:35:47 41° SSE
STARLINK-1241 3.6 19:31:03 10° WSW 19:35:06 76° NNW 19:37:12 27° ENE
SPOT 3 Rocket 4.0 19:30:08 10° S 19:35:18 61° WSW 19:40:29 10° NNW
Cosmos 1825 Rocket 3.5 19:31:46 10° N 19:36:12 68° ENE 19:37:53 36° SSE
IRIDIUM 103 4.4 19:31:34 10° N 19:36:48 77° W 19:42:00 10° S
NOSS 3-4 (A) 4.2 19:32:14 10° NW 19:38:48 50° NE 19:42:42 26° E
NOSS 3-4 (C) 4.3 19:32:19 10° NW 19:38:54 49° NE 19:42:48 26° E
STARLINK-1119 3.8 19:35:25 10° WNW 19:39:31 59° SSW 19:40:34 43° SSE
STARLINK-1239 3.7 19:35:58 10° WSW 19:40:02 73° NNW 19:41:56 30° ENE
Cosmos 2369 Rocket 2.2 19:34:27 10° NNW 19:40:12 86° WSW 19:43:14 29° SSE
Cosmos 1726 2.0 19:42:57 46° S 19:43:57 75° E 19:47:43 10° NNE
STARLINK-1114 3.9 19:40:27 10° WNW 19:44:30 55° SSW 19:45:24 45° SSE
STARLINK-1240 3.7 19:40:42 10° WSW 19:44:45 70° NNW 19:46:29 32° ENE
Aureole 2 Rocket 2.7 19:41:43 10° NNW 19:45:12 64° WSW 19:45:56 48° SSW
Cosmos 1758 Rocket 3.5 19:41:35 10° NNW 19:45:59 82° W 19:47:54 33° S
Cosmos 2263 4.1 19:40:35 10° NNW 19:46:15 80° ENE 19:48:35 37° SE
Cosmos 1908 4.1 19:48:57 35° NE 19:48:57 35° NE 19:51:40 10° NNE
SAR-Lupe-2 4.0 19:44:40 10° NNE 19:47:28 44° NE 19:47:28 44° NE
CZ-2C R/B 4.4 19:43:41 10° N 19:48:23 59° WNW 19:53:00 10° SSW
STARLINK-1130 (DARKSAT) 4.0 19:45:25 10° WNW 19:49:28 52° SSW 19:50:10 45° S
STARLINK-1216 3.8 19:45:28 10° W 19:49:30 68° NNW 19:51:02 36° NE
NOSS 3-3 (A) 4.0 19:43:51 10° SSW 19:49:32 53° ESE 19:55:56 10° NE
NOSS 3-3 (C) 4.0 19:43:58 10° SSW 19:49:38 53° ESE 19:56:02 10° NE
Meteor 2-17 Rocket 4.4 19:44:57 10° N 19:51:06 67° ENE 19:53:46 35° SSE
Cosmos 1953 Rocket 3.5 19:48:02 10° N 19:52:30 69° E 19:53:22 53° SE
STARLINK-1209 3.8 19:50:03 10° W 19:52:50 41° N 19:52:50 41° N
Terra 3.1 19:53:53 24° ENE 19:53:59 24° ENE 19:57:47 10° N
STARLINK-1237 3.8 19:50:15 10° W 19:54:18 65° NNW 19:55:38 39° NE
STARLINK-1084 4.0 19:50:24 10° WNW 19:54:24 48° SSW 19:54:56 45° S
STARLINK-1228 3.9 19:52:16 10° WNW 19:54:50 40° NNW 19:54:50 40° NNW
Cosmos 2184 Rocket 4.1 19:48:42 10° NNW 19:55:03 78° W 19:59:37 20° S
Spot 2 Rocket 3.4 19:55:42 44° SE 19:57:19 74° ENE 20:02:27 10° NNW
STARLINK-1202 3.9 19:55:01 10° W 19:59:03 63° NNW 20:00:12 42° NE
STARLINK-1098 4.1 19:55:24 10° WNW 19:59:22 45° SW 19:59:43 44° SSW
Cosmos 1606 Rocket 3.4 19:59:07 51° S 20:00:10 78° E 20:04:39 10° NNE
Cosmos 1943 Rocket 2.9 19:56:10 10° NW 20:01:28 48° WSW 20:04:34 23° S
SPOT 1/Viking Rocket 3.7 20:00:50 47° ESE 20:01:49 55° ENE 20:06:56 10° N
ERBS 4.4 20:00:43 10° WNW 20:03:30 23° N 20:04:36 20° NNE
STARLINK-1123 4.3 20:00:24 10° WNW 20:04:20 42° SW 20:04:30 42° SSW
Cosmos 1943 3.1 20:01:04 22° S 20:04:41 60° ESE 20:10:17 10° NE
STARLINK-1246 4.0 20:02:14 10° W 20:06:17 61° NNW 20:07:11 47° NE
Meteor 2-10 4.2 20:01:21 10° SSW 20:06:42 76° WNW 20:12:18 10° N
SL-8 R/B 3.7 20:02:30 10° W 20:07:13 59° SSW 20:07:35 57° S
STARLINK-1201 4.0 20:05:48 10° W 20:08:41 44° NNW 20:08:41 44° NNW
STARLINK-1097 4.4 20:05:23 10° WNW 20:09:16 39° SW 20:09:16 39° SW
ATLAS 2AS CENTAUR R/B 2.9 20:04:01 10° NW 20:11:45 70° NE 20:14:22 42° ESE
STARLINK-1224 4.0 20:09:23 10° W 20:13:25 58° N 20:13:58 52° NNE
Cosmos 1340 Rocket 4.4 20:15:29 26° NE 20:15:29 26° NE 20:17:27 10° NNE
USA 234 3.2 20:07:54 10° ENE 20:14:29 87° NNW 20:21:02 10° WSW
STARLINK-1203 4.0 20:10:47 10° W 20:14:43 56° N 20:15:06 53° NNE
Cosmos 2154 Rocket 4.0 20:09:46 10° N 20:16:10 82° W 20:18:59 36° S
USA 245 4.0 20:15:17 53° S 20:16:34 86° WSW 20:22:31 10° NNW
STARLINK-1225 4.0 20:14:00 10° W 20:18:01 57° N 20:18:23 54° NNE
Resurs 01 Rocket 2.9 20:16:28 24° SSW 20:18:30 37° W 20:22:37 10° NNW
Cosmos 1328 4.2 20:16:15 10° NNW 20:20:12 58° W 20:20:25 57° WSW
Cosmos 921 Rocket 3.9 20:18:09 10° N 20:21:21 37° NNE 20:21:21 37° NNE
SL-16 R/B 3.9 20:17:33 10° WSW 20:22:36 33° NW 20:27:41 10° NNE
STARLINK-1230 4.0 20:18:46 10° W 20:22:47 56° N 20:22:57 55° N
Cosmos 2228 3.2 20:22:39 55° SW 20:23:21 66° WNW 20:27:40 10° N
Cosmos 967 Rocket 4.4 20:18:22 10° SSW 20:24:49 81° SE 20:31:20 10° NE
Cosmos 1953 4.3 20:24:03 10° SW 20:27:28 27° WNW 20:30:56 10° N
STARLINK-1243 4.1 20:23:37 10° W 20:27:36 55° N 20:27:36 55° N
Iridium 4 Rocket 4.4 20:26:10 10° N 20:28:55 30° NE 20:28:55 30° NE
Cosmos 962 Rocket 4.3 20:24:13 10° N 20:30:28 83° E 20:31:43 59° SSE
STARLINK-1236 4.2 20:28:25 10° W 20:32:12 53° NNW 20:32:12 53° NNW
Nadezhda 1 Rocket 4.2 20:29:47 21° SSW 20:34:16 71° WNW 20:40:40 10° N
SL-8 Rocket 3.9 20:30:07 10° N 20:36:24 65° ENE 20:37:01 61° ESE
ISS -1.2 20:34:33 10° W 20:35:39 17° W 20:35:39 17° W
Cosmos 2058 Rocket 3.4 20:42:38 64° NNW 20:42:38 64° NNW 20:46:32 10° N
SPOT 5 3.1 20:44:25 56° N 20:44:25 56° N 20:47:55 10° NNW
Cosmos 614 Rocket 4.3 20:44:49 56° NE 20:44:49 56° NE 20:48:59 10° NNE
Cosmos 1603 4.1 20:38:26 10° SW 20:44:00 61° WNW 20:49:36 10° NNE
Cosmos 2366 rocket 4.0 20:38:07 10° N 20:44:12 59° ENE 20:44:18 59° E
CZ-4C R/B 4.3 20:42:48 10° NW 20:48:08 27° NNE 20:53:35 12° ENE
IGS 5A 4.3 20:49:02 46° WNW 20:49:02 46° WNW 20:52:33 10° NNW
ERS-1 Rocket 3.0 20:48:38 78° W 20:48:38 78° W 20:53:33 10° NNW
CZ-2C R/B 4.1 20:43:56 10° N 20:48:34 34° WNW 20:53:10 10° SW
Landsat 7 4.3 20:49:40 52° WSW 20:49:47 52° W 20:54:28 10° NNW
Cosmos 1980 Rocket 4.4 20:48:47 10° N 20:51:38 14° NNE 20:53:42 12° NE
Cosmos 1959 Rocket 4.4 20:53:21 10° N 20:59:44 77° E 20:59:53 77° E
Cosmos 1656 Rocket 4.4 20:56:15 10° NW 21:01:38 44° WSW 21:02:03 43° WSW
Aureole 1 Rocket 4.2 21:01:51 34° SSW 21:05:38 83° WNW 21:12:06 10° NNE
COSMOS 2455 2.8 21:09:29 10° NW 21:15:09 78° NNW 21:15:09 78° NNW
In-Cosmos 22 Rocket 4.4 21:14:53 10° NNW 21:20:10 73° NW 21:20:10 73° NW
Cosmos 1461 4.5 21:18:15 10° NW 21:20:56 36° NW 21:20:56 36° NW
Cosmos 2369 Rocket 4.4 21:20:08 10° WNW 21:23:21 16° W 21:25:04 14° WSW
Cosmos 1821 Rocket 4.5 21:22:06 10° N 21:27:28 51° NE 21:27:28 51° NE
NOSS 3-4 (A) 4.1 21:23:09 10° NW 21:29:58 57° WSW 21:30:09 56° SW
NOSS 3-4 (C) 4.0 21:23:15 10° NW 21:30:04 57° WSW 21:30:15 57° SW
Terra 3.0 21:32:45 39° NW 21:32:45 39° NW 21:36:06 10° NNW
ATLAS CENTAUR R/B 4.0 21:30:07 10° NNW 21:31:52 14° NNE 21:31:52 14° NNE
Cosmos 1818 4.5 21:39:11 44° N 21:39:11 44° N 21:43:13 10° NE
USA 234 3.9 21:50:56 10° ENE 21:57:12 51° N 22:03:29 10° W
ATLAS 2AS CENTAUR R/B 3.8 21:55:37 10° NW 22:01:48 35° WSW 22:01:48 35° WSW
Cosmos 1697 Rocket 3.8 22:06:11 10° NNW 22:10:12 41° N 22:10:12 41° N
SL-16 R/B 4.4 22:10:18 10° N 22:13:55 17° NNE 22:15:22 16° NE
Mayak 1.3 22:14:13 10° N 22:15:32 19° N 22:15:32 19° N
Cosmos 2322 Rocket 4.4 22:24:34 10° N 22:28:18 17° NE 22:29:38 16° NE
Cosmos 1980 Rocket 3.5 22:31:44 10° NNW 22:35:28 36° N 22:35:28 36° N
CZ-4C R/B 3.4 22:31:33 10° NW 22:38:12 52° NE 22:38:44 51° NE
Cosmos 2082 Rocket 4.1 23:00:52 21° NE 23:00:52 21° NE 23:02:52 10° NE
ATLAS 5 CENTAUR R/B 4.0 23:20:05 22° NNE 23:20:05 22° NNE 23:22:31 10° NNE
Cosmos 1833 Rocket 4.1 23:28:31 34° NNE 23:28:31 34° NNE 23:31:39 10° NNE
CZ-2D R/B 4.5 23:30:57 10° NE 23:32:53 15° ENE 23:32:53 15° ENE
Resurs 1-4 Rocket 4.5 23:32:27 10° NE 23:34:06 14° ENE 23:34:06 14° ENE
USA 234 4.0 23:33:23 10° E 23:39:38 50° N 23:45:53 10° WNW
SL-16 R/B 3.5 23:52:44 41° ENE 23:52:44 41° ENE 23:58:27 10° N
